| time (UTC) | temp C | wind direction | speed KPH | gust KPH | rain 1hr cm | rain 24hr cm | rain mn cm | humidity % | barometer mb |
| 20260508144546 | 19 | 116 | 1.6 | 8.0 | 0.00 | 0.23 | 0.00 | 44 | 1018.4 |
| 20260508143058 | 18 | 221 | 0.0 | 6.4 | 0.00 | 0.23 | 0.00 | 47 | 1018.3 |
| 20260508141555 | 18 | 224 | 0.0 | 6.4 | 0.00 | 0.23 | 0.00 | 49 | 1018.1 |
| 20260508140051 | 18 | 122 | 0.0 | 6.4 | 0.00 | 0.23 | 0.00 | 47 | 1018.0 |
| 20260508134546 | 17 | 196 | 1.6 | 3.2 | 0.00 | 0.23 | 0.00 | 45 | 1018.0 |
| 20260508133055 | 17 | 107 | 1.6 | 3.2 | 0.00 | 0.23 | 0.00 | 48 | 1017.9 |
| 20260508131551 | 16 | 0 | 0.0 | 1.6 | 0.00 | 0.23 | 0.00 | 68 | 1017.8 |
| 20260508130054 | 15 | 0 | 0.0 | 1.6 | 0.00 | 0.23 | 0.00 | 73 | 1017.8 |
| 20260508124552 | 15 | 0 | 0.0 | 0.0 | 0.00 | 0.41 | 0.00 | 84 | 1017.7 |
| 20260508123055 | 12 | 0 | 0.0 | 3.2 | 0.00 | 0.41 | 0.00 | 98 | 1017.8 |
| 20260508121605 | 10 | 0 | 0.0 | 0.0 | 0.00 | 0.41 | 0.00 | 98 | 1017.7 |
| 20260508120045 | 6 | 0 | 0.0 | 0.0 | 0.00 | 0.41 | 0.00 | 98 | 1017.4 |
| 20260508114551 | 5 | 0 | 0.0 | 0.0 | 0.00 | 0.69 | 0.00 | 98 | 1017.2 |
| 20260508113051 | 5 | 0 | 0.0 | 0.0 | 0.00 | 0.69 | 0.00 | 97 | 1016.9 |
| 20260508111549 | 5 | 0 | 0.0 | 0.0 | 0.00 | 0.69 | 0.00 | 97 | 1016.8 |
| 20260508104545 | 5 | 0 | 0.0 | 0.0 | 0.00 | 0.69 | 0.00 | 97 | 1016.4 |
| 20260508103046 | 5 | 0 | 0.0 | 0.0 | 0.00 | 0.69 | 0.00 | 97 | 1016.2 |
| 20260508101549 | 5 | 0 | 0.0 | 0.0 | 0.00 | 0.69 | 0.00 | 97 | 1016.0 |
| 20260508100049 | 5 | 0 | 0.0 | 0.0 | 0.00 | 0.69 | 0.00 | 96 | 1015.9 |
| 20260508094603 | 5 | 0 | 0.0 | 0.0 | 0.00 | 0.69 | 0.00 | 96 | 1015.6 |
| 20260508093047 | 5 | 0 | 0.0 | 0.0 | 0.00 | 0.69 | 0.00 | 96 | 1015.6 |
| 20260508091546 | 5 | 0 | 0.0 | 0.0 | 0.00 | 0.69 | 0.00 | 96 | 1015.6 |
| 20260508090046 | 6 | 0 | 0.0 | 0.0 | 0.00 | 0.69 | 0.00 | 96 | 1015.4 |
| 20260508084548 | 6 | 0 | 0.0 | 0.0 | 0.00 | 0.69 | 0.00 | 96 | 1015.3 |
| 20260508083130 | 6 | 0 | 0.0 | 0.0 | 0.00 | 0.69 | 0.00 | 96 | 1015.4 |
| 20260508081554 | 6 | 0 | 0.0 | 0.0 | 0.00 | 0.69 | 0.00 | 96 | 1015.2 |
| 20260508080056 | 6 | 0 | 0.0 | 0.0 | 0.00 | 0.69 | 0.00 | 96 | 1015.2 |
| 20260508074556 | 6 | 0 | 0.0 | 0.0 | 0.00 | 0.71 | 0.00 | 96 | 1015.0 |
| 20260508073223 | 6 | 0 | 0.0 | 0.0 | 0.00 | 0.71 | 0.00 | 96 | 1015.0 |
| 20260508071652 | 6 | 0 | 0.0 | 0.0 | 0.00 | 0.71 | 0.00 | 96 | 1014.8 |
| 20260508070059 | 7 | 0 | 0.0 | 0.0 | 0.00 | 0.71 | 0.00 | 96 | 1014.8 |
| 20260508064711 | 7 | 0 | 0.0 | 0.0 | 0.00 | 0.86 | 0.00 | 96 | 1014.7 |
| 20260508063101 | 7 | 0 | 0.0 | 0.0 | 0.00 | 0.86 | 0.00 | 96 | 1014.5 |
| 20260508061550 | 7 | 0 | 0.0 | 1.6 | 0.00 | 0.86 | 0.00 | 96 | 1014.5 |
| 20260508060059 | 7 | 0 | 0.0 | 0.0 | 0.00 | 0.86 | 0.00 | 95 | 1014.6 |
| 20260508054555 | 7 | 0 | 0.0 | 0.0 | 0.00 | 0.97 | 0.00 | 95 | 1014.7 |
| 20260508053050 | 7 | 0 | 0.0 | 0.0 | 0.00 | 0.97 | 0.00 | 95 | 1014.5 |
| 20260508051554 | 7 | 0 | 0.0 | 0.0 | 0.00 | 0.97 | 0.00 | 94 | 1014.4 |
| 20260508050053 | 7 | 0 | 0.0 | 0.0 | 0.00 | 0.97 | 0.00 | 94 | 1014.3 |
| 20260508044544 | 7 | 0 | 0.0 | 0.0 | 0.00 | 1.07 | 0.00 | 94 | 1014.2 |
| 20260508043058 | 8 | 0 | 0.0 | 0.0 | 0.00 | 1.07 | 0.00 | 93 | 1014.2 |
| 20260508041552 | 8 | 0 | 0.0 | 0.0 | 0.00 | 1.07 | 0.00 | 94 | 1014.1 |
| 20260508040050 | 8 | 0 | 0.0 | 0.0 | 0.00 | 1.07 | 0.00 | 93 | 1014.1 |
| 20260508034555 | 8 | 0 | 0.0 | 1.6 | 0.00 | 1.07 | 1.07 | 93 | 1014.1 |
| 20260508033058 | 8 | 0 | 0.0 | 0.0 | 0.00 | 1.07 | 1.07 | 92 | 1014.0 |
| 20260508031551 | 8 | 0 | 0.0 | 1.6 | 0.00 | 1.07 | 1.07 | 91 | 1014.0 |
| 20260508030056 | 9 | 0 | 0.0 | 0.0 | 0.00 | 1.07 | 1.07 | 91 | 1014.0 |
| 20260508024558 | 10 | 252 | 0.0 | 3.2 | 0.00 | 1.19 | 1.07 | 91 | 1013.6 |
| 20260508023053 | 10 | 0 | 0.0 | 1.6 | 0.00 | 1.19 | 1.07 | 90 | 1013.6 |
| 20260508021551 | 10 | 0 | 0.0 | 0.0 | 0.00 | 1.19 | 1.07 | 89 | 1013.3 |
| 20260508020053 | 11 | 0 | 0.0 | 0.0 | 0.00 | 1.19 | 1.07 | 88 | 1013.0 |
| 20260508014546 | 11 | 0 | 0.0 | 1.6 | 0.00 | 1.27 | 1.07 | 86 | 1012.7 |
| 20260508013050 | 11 | 0 | 0.0 | 0.0 | 0.00 | 1.27 | 1.07 | 84 | 1012.4 |
| 20260508011558 | 12 | 11 | 0.0 | 1.6 | 0.00 | 1.27 | 1.07 | 80 | 1012.1 |
| 20260508010104 | 12 | 0 | 0.0 | 0.0 | 0.00 | 1.27 | 1.07 | 77 | 1011.7 |
| 20260508004732 | 13 | 0 | 0.0 | 4.8 | 0.00 | 1.40 | 1.07 | 77 | 1011.8 |
| 20260508003045 | 15 | 0 | 0.0 | 1.6 | 0.00 | 1.40 | 1.07 | 74 | 1011.6 |
| 20260508001550 | 15 | 0 | 0.0 | 6.4 | 0.00 | 1.40 | 1.07 | 68 | 1011.4 |
| 20260508000050 | 16 | 0 | 0.0 | 4.8 | 0.00 | 1.40 | 1.07 | 70 | 1011.5 |
| 20260507234549 | 16 | 0 | 1.6 | 6.4 | 0.00 | 1.45 | 1.07 | 70 | 1011.3 |
| 20260507233053 | 16 | 0 | 0.0 | 3.2 | 0.00 | 1.45 | 1.07 | 79 | 1011.1 |
| 20260507231606 | 16 | 0 | 0.0 | 1.6 | 0.00 | 1.45 | 1.07 | 82 | 1010.8 |
| 20260507230046 | 16 | 0 | 0.0 | 1.6 | 0.00 | 1.45 | 1.07 | 84 | 1010.5 |
| 20260507224604 | 17 | 0 | 0.0 | 3.2 | 0.00 | 1.45 | 1.07 | 88 | 1010.2 |
| 20260507223056 | 17 | 15 | 0.0 | 3.2 | 0.00 | 1.45 | 1.07 | 87 | 1009.9 |
| 20260507221551 | 17 | 20 | 0.0 | 3.2 | 0.00 | 1.45 | 1.07 | 87 | 1009.6 |
| 20260507220054 | 17 | 0 | 0.0 | 3.2 | 0.00 | 1.45 | 1.07 | 86 | 1009.4 |
| 20260507214604 | 17 | 0 | 0.0 | 6.4 | 0.00 | 1.45 | 1.07 | 87 | 1009.5 |
| 20260507213105 | 17 | 76 | 0.0 | 11.3 | 0.00 | 1.45 | 1.07 | 87 | 1009.2 |
| 20260507211555 | 17 | 49 | 0.0 | 3.2 | 0.00 | 1.45 | 1.07 | 88 | 1009.1 |
| 20260507210055 | 17 | 0 | 0.0 | 3.2 | 0.00 | 1.45 | 1.07 | 87 | 1009.0 |
| 20260507204557 | 17 | 350 | 1.6 | 11.3 | 0.00 | 1.45 | 1.07 | 88 | 1008.6 |
| 20260507203049 | 18 | 51 | 3.2 | 8.0 | 0.00 | 1.45 | 1.07 | 87 | 1008.5 |
| 20260507201545 | 18 | 99 | 1.6 | 11.3 | 0.00 | 1.45 | 1.07 | 88 | 1008.4 |
| 20260507200050 | 18 | 0 | 3.2 | 8.0 | 0.00 | 1.45 | 1.07 | 88 | 1008.4 |
| 20260507194550 | 18 | 11 | 3.2 | 9.7 | 0.03 | 1.45 | 1.07 | 92 | 1008.2 |
| 20260507193048 | 17 | 28 | 1.6 | 8.0 | 0.03 | 1.45 | 1.07 | 96 | 1008.5 |
| 20260507191546 | 17 | 339 | 4.8 | 9.7 | 0.20 | 1.45 | 1.07 | 91 | 1008.6 |
| 20260507190044 | 20 | 5 | 0.0 | 6.4 | 0.20 | 1.45 | 1.07 | 89 | 1008.5 |
| 20260507184548 | 21 | 0 | 0.0 | 1.6 | 0.18 | 1.42 | 1.04 | 89 | 1007.8 |
| 20260507183056 | 22 | 348 | 0.0 | 11.3 | 0.15 | 1.40 | 1.02 | 78 | 1008.0 |
| 20260507181549 | 23 | 168 | 1.6 | 14.5 | 0.00 | 1.24 | 0.86 | 78 | 1008.0 |
| 20260507180052 | 23 | 0 | 4.8 | 11.3 | 0.00 | 1.24 | 0.86 | 75 | 1008.0 |
| 20260507174546 | 23 | 159 | 3.2 | 17.7 | 0.00 | 1.30 | 0.86 | 76 | 1008.2 |
| 20260507173052 | 23 | 138 | 1.6 | 12.9 | 0.00 | 1.30 | 0.86 | 75 | 1008.3 |
| 20260507171555 | 23 | 124 | 3.2 | 9.7 | 0.00 | 1.30 | 0.86 | 77 | 1008.5 |
| 20260507170052 | 22 | 193 | 3.2 | 14.5 | 0.00 | 1.30 | 0.86 | 82 | 1008.5 |
| 20260507164556 | 21 | 154 | 4.8 | 11.3 | 0.00 | 1.32 | 0.86 | 85 | 1008.9 |
| 20260507163050 | 21 | 112 | 0.0 | 1.6 | 0.00 | 1.32 | 0.86 | 92 | 1009.0 |
| 20260507161553 | 20 | 219 | 3.2 | 8.0 | 0.00 | 1.32 | 0.86 | 91 | 1009.1 |
| 20260507160057 | 21 | 115 | 0.0 | 3.2 | 0.00 | 1.32 | 0.86 | 96 | 1009.0 |
| 20260507154549 | 20 | 88 | 0.0 | 4.8 | 0.03 | 1.37 | 0.86 | 96 | 1008.9 |
| 20260507153051 | 19 | 0 | 0.0 | 6.4 | 0.03 | 1.37 | 0.86 | 98 | 1009.0 |
| 20260507151548 | 18 | 205 | 0.0 | 4.8 | 0.03 | 1.37 | 0.86 | 98 | 1009.6 |
| 20260507150049 | 18 | 0 | 1.6 | 11.3 | 0.03 | 1.37 | 0.86 | 98 | 1009.4 |